STARLINK-36316

Last updated on Tue Mar 10 2026 00:02:05 GMT+0000 (Coordinated Universal Time)

1 67705U 26025N 26068.26029804 .00206304 00000+0 13471-2 0 9995 2 67705 97.2837 179.8346 0001797 128.3207 231.8220 15.75253751 5877
UTC large
Height (km)
Speed (km/s)
/
Latitude / Longitude
Inclination (degrees)
Orbital Period (minutes)
Azimuth
Elevation
Range (km)
Doppler Factor

Next 0 passes for location: London (51.5072 / 0.1276)

Sorry there are no passes over London.